CW8261 Weather Reports


time (UTC)temp
F
wind
direction
speed
knots
gust
knots
rain 1hr
in
rain 24hr
in
rain mn
in
humidity
%
barometer
mb
20260906162519 79 41 2.6 7.8 0.00 0.00 0.00 80 1017.5
20260906161516 79 40 2.6 7.8 0.00 0.00 0.00 80 1017.4
20260906160517 78 45 2.6 8.7 0.00 0.00 0.00 81 1017.4
20260906155520 78 34 4.3 7.0 0.00 0.00 0.00 82 1017.3
20260906154521 78 91 2.6 6.1 0.00 0.00 0.00 83 1017.2
20260906153517 77 51 1.7 4.3 0.00 0.00 0.00 84 1017.2
20260906152517 76 33 3.5 7.0 0.00 0.00 0.00 85 1017.1
20260906151517 75 53 2.6 4.3 0.00 0.00 0.00 89 1016.9
20260906150529 75 54 1.7 4.3 0.00 0.00 0.00 89 1016.8
20260906145521 75 42 2.6 5.2 0.00 0.00 0.00 89 1016.7
20260906144530 74 86 1.7 2.6 0.00 0.00 0.00 90 1016.5
20260906143521 74 88 2.6 7.0 0.00 0.00 0.00 90 1016.6
20260906142521 74 88 2.6 5.2 0.00 0.00 0.00 91 1016.6
20260906141521 73 84 3.5 7.0 0.00 0.00 0.00 91 1016.6
20260906140542 73 66 2.6 4.3 0.00 0.00 0.00 92 1016.6
20260906135522 72 96 2.6 6.1 0.00 0.00 0.00 93 1016.5
20260906134522 72 116 3.5 7.0 0.00 0.00 0.00 93 1016.5
20260906133522 72 115 2.6 6.1 0.00 0.00 0.00 93 1016.5
20260906132522 72 58 2.6 5.2 0.00 0.00 0.00 94 1016.3
20260906131522 71 46 2.6 6.1 0.00 0.00 0.00 94 1016.2
20260906130522 71 55 3.5 8.7 0.00 0.00 0.00 94 1016.2
20260906125517 71 50 2.6 7.8 0.00 0.00 0.00 94 1016.2
20260906124524 71 80 2.6 5.2 0.00 0.00 0.00 95 1016.2
20260906123544 70 51 2.6 7.8 0.00 0.00 0.00 95 1016.2
20260906122543 70 39 4.3 6.1 0.00 0.00 0.00 94 1016.1
20260906121543 71 38 4.3 7.8 0.00 0.00 0.00 94 1016.0
20260906120517 71 45 2.6 6.1 0.00 0.00 0.00 94 1015.7
20260906115517 71 59 2.6 6.1 0.00 0.00 0.00 94 1015.6
20260906114518 71 38 4.3 6.1 0.00 0.00 0.00 93 1015.4
20260906113524 71 40 1.7 3.5 0.00 0.00 0.00 93 1015.1
20260906112518 71 55 2.6 5.2 0.00 0.00 0.00 92 1015.0
20260906111518 71 40 1.7 4.3 0.00 0.00 0.00 92 1014.9
20260906110518 72 34 2.6 3.5 0.00 0.00 0.00 92 1014.9
20260906105518 72 33 2.6 3.5 0.00 0.00 0.00 91 1014.8
20260906104520 72 31 2.6 4.3 0.00 0.00 0.00 91 1014.7
20260906103519 72 40 1.7 2.6 0.00 0.00 0.00 91 1014.7
20260906102519 73 21 3.5 3.5 0.00 0.00 0.00 90 1014.7
20260906101517 73 24 2.6 4.3 0.00 0.00 0.00 90 1014.5
20260906100517 73 39 2.6 4.3 0.00 0.00 0.00 89 1014.5
20260906095519 73 30 3.5 6.1 0.00 0.00 0.00 89 1014.3
20260906094521 74 30 3.5 6.1 0.00 0.00 0.00 89 1014.2
20260906093518 74 32 2.6 6.1 0.00 0.00 0.00 88 1014.2
20260906092519 74 26 2.6 4.3 0.00 0.00 0.00 88 1014.3
20260906091518 74 37 3.5 5.2 0.00 0.00 0.00 87 1014.2
20260906090519 75 44 2.6 6.1 0.00 0.00 0.00 87 1014.1
20260906085518 75 46 1.7 3.5 0.00 0.00 0.00 87 1014.0
20260906084539 75 45 1.7 3.5 0.00 0.00 0.00 86 1013.9
20260906083519 75 47 1.7 2.6 0.00 0.00 0.00 86 1013.8
20260906082519 76 47 1.7 4.3 0.00 0.00 0.00 85 1013.8
20260906081519 76 46 2.6 5.2 0.00 0.00 0.00 84 1013.9
20260906080521 76 54 1.7 4.3 0.00 0.00 0.00 84 1013.9
20260906075519 77 70 1.7 3.5 0.00 0.00 0.00 83 1014.0
20260906074520 77 88 1.7 3.5 0.00 0.00 0.00 83 1013.9
20260906073521 77 51 2.6 5.2 0.00 0.00 0.00 83 1013.9
20260906072521 78 44 1.7 3.5 0.00 0.00 0.00 83 1013.9
20260906071520 78 28 0.9 2.6 0.00 0.00 0.00 82 1013.9
20260906070540 78 43 1.7 4.3 0.00 0.00 0.00 81 1013.8
20260906065520 79 45 0.9 1.7 0.00 0.00 0.00 80 1013.8
20260906064519 79 99 0.9 2.6 0.00 0.00 0.00 80 1014.0
20260906063520 80 94 1.7 4.3 0.00 0.00 0.00 79 1014.0
20260906062520 80 94 1.7 5.2 0.00 0.00 0.00 79 1014.0
20260906061517 80 66 1.7 5.2 0.00 0.00 0.00 79 1014.1
20260906060517 80 87 1.7 4.3 0.00 0.00 0.00 80 1014.3
20260906055541 81 91 1.7 4.3 0.00 0.00 0.00 81 1014.2
20260906054518 81 84 1.7 4.3 0.00 0.00 0.00 82 1014.1
20260906053517 81 81 0.9 2.6 0.00 0.00 0.00 82 1014.2
20260906052517 81 69 1.7 3.5 0.00 0.00 0.00 81 1014.2
20260906051518 81 96 0.9 2.6 0.00 0.00 0.00 81 1014.2
20260906050518 82 90 1.7 4.3 0.00 0.00 0.00 80 1014.1
20260906045518 82 54 0.9 3.5 0.00 0.00 0.00 80 1013.9
20260906044520 82 53 0.9 2.6 0.00 0.00 0.00 79 1013.8
20260906043518 83 40 0.9 3.5 0.00 0.00 0.00 77 1013.7
20260906042516 83 44 0.9 3.5 0.00 0.00 0.00 76 1013.5
20260906041518 84 51 0.9 2.6 0.00 0.00 0.00 75 1013.6
20260906040519 84 29 1.7 5.2 0.00 0.00 0.00 74 1013.5
20260906035519 84 65 0.9 2.6 0.00 0.00 0.00 74 1013.4
20260906034538 84 35 0.9 2.6 0.00 0.00 0.00 73 1013.3
20260906033517 84 41 0.9 3.5 0.00 0.00 0.00 73 1013.2
20260906032520 84 34 0.9 2.6 0.00 0.00 0.00 72 1013.3
20260906031520 84 30 1.7 3.5 0.00 0.00 0.00 71 1013.3
20260906030518 85 24 1.7 3.5 0.00 0.00 0.00 70 1013.2
20260906025519 85 30 2.6 4.3 0.00 0.00 0.00 69 1013.2
20260906024517 85 32 1.7 4.3 0.00 0.00 0.00 67 1013.1
20260906023539 85 22 1.7 4.3 0.00 0.00 0.00 67 1013.1
20260906022518 85 16 0.9 2.6 0.00 0.00 0.00 66 1012.9
20260906021518 85 26 1.7 3.5 0.00 0.00 0.00 65 1012.8
20260906020518 85 11 2.6 3.5 0.00 0.00 0.00 64 1012.6
20260906015518 85 11 2.6 4.3 0.00 0.00 0.00 64 1012.5
20260906014521 85 2 1.7 2.6 0.00 0.00 0.00 64 1012.4
20260906013518 86 19 0.9 1.7 0.00 0.00 0.00 62 1012.3
20260906012519 86 30 1.7 2.6 0.00 0.00 0.00 61 1012.2
20260906011520 86 8 0.9 1.7 0.00 0.00 0.00 61 1012.2
20260906010516 87 28 1.7 2.6 0.00 0.00 0.00 60 1012.0
20260906005521 88 10 1.7 2.6 0.00 0.00 0.00 58 1011.8
20260906004520 88 353 2.6 4.3 0.00 0.00 0.00 57 1011.8
20260906003517 89 350 3.5 5.2 0.00 0.00 0.00 56 1011.8
20260906002537 89 345 8.7 13.0 0.00 0.00 0.00 55 1011.8
20260906001539 90 344 9.6 13.0 0.00 0.00 0.00 55 1011.9
20260906000518 91 345 9.6 13.9 0.00 0.00 0.00 54 1011.9
20260905235518 91 344 9.6 13.9 0.00 0.00 0.00 53 1011.9
20260905234518 92 344 9.6 13.9 0.00 0.00 0.00 52 1011.9
20260905233518 93 345 9.6 13.9 0.00 0.00 0.00 52 1011.9
20260905232538 94 346 9.6 13.0 0.00 0.00 0.00 51 1011.9
20260905231518 94 349 9.6 13.0 0.00 0.00 0.00 50 1011.8
20260905230519 95 313 2.6 3.5 0.00 0.00 0.00 48 1011.6
20260905225519 96 314 2.6 3.5 0.00 0.00 0.00 46 1011.6
20260905224520 96 313 2.6 3.5 0.00 0.00 0.00 44 1011.5
20260905223601 97 314 2.6 3.5 0.00 0.00 0.00 43 1011.6
20260905222520 97 313 2.6 3.5 0.00 0.00 0.00 41 1011.7
20260905221520 97 313 2.6 3.5 0.00 0.00 0.00 42 1011.6
20260905220517 96 314 2.6 3.5 0.00 0.00 0.00 45 1011.6
20260905215517 96 314 2.6 3.5 0.00 0.00 0.00 47 1011.6
20260905214520 96 313 2.6 3.5 0.00 0.00 0.00 48 1011.5
20260905213521 96 313 2.6 3.5 0.00 0.00 0.00 49 1011.6
20260905212538 97 313 2.6 3.5 0.00 0.00 0.00 48 1011.5
20260905211517 98 313 2.6 3.5 0.00 0.00 0.00 42 1011.6
20260905210519 98 313 2.6 3.5 0.00 0.00 0.00 41 1011.5
20260905205522 99 313 2.6 3.5 0.00 0.00 0.00 41 1011.5
20260905204518 99 313 2.6 3.5 0.00 0.00 0.00 41 1011.7
20260905203519 100 315 1.7 3.5 0.00 0.00 0.00 41 1011.6
20260905202518 99 313 3.5 4.3 0.00 0.00 0.00 41 1011.8
20260905201518 99 311 2.6 4.3 0.00 0.00 0.00 40 1011.9
20260905200521 99 313 2.6 3.5 0.00 0.00 0.00 40 1011.9
20260905195519 99 313 2.6 3.5 0.00 0.00 0.00 40 1012.0
20260905194521 99 313 2.6 3.5 0.00 0.00 0.00 41 1012.2
20260905193519 99 308 2.6 4.3 0.00 0.00 0.00 40 1012.1
20260905192519 98 307 3.5 5.2 0.00 0.00 0.00 42 1012.4
20260905191537 98 308 3.5 4.3 0.00 0.00 0.00 40 1012.5
20260905190520 98 308 3.5 5.2 0.00 0.00 0.00 42 1012.6
20260905185520 98 311 2.6 4.3 0.00 0.00 0.00 43 1012.7
20260905184517 98 313 1.7 3.5 0.00 0.00 0.00 44 1012.8
20260905183519 98 308 1.7 2.6 0.00 0.00 0.00 45 1013.0
20260905182517 97 308 1.7 2.6 0.00 0.00 0.00 45 1013.1
20260905181521 97 309 1.7 2.6 0.00 0.00 0.00 47 1013.2
20260905180518 97 311 1.7 2.6 0.00 0.00 0.00 47 1013.2
20260905175519 97 312 1.7 2.6 0.00 0.00 0.00 47 1013.3
20260905174518 96 135 1.7 4.3 0.00 0.00 0.00 48 1013.4
20260905173520 96 136 1.7 4.3 0.00 0.00 0.00 50 1013.5
20260905172518 96 137 1.7 4.3 0.00 0.00 0.00 50 1013.5
20260905171519 96 134 1.7 5.2 0.00 0.00 0.00 50 1013.6
20260905170520 95 333 2.6 7.0 0.00 0.00 0.00 52 1013.8
20260905165518 94 356 2.6 7.8 0.00 0.00 0.00 51 1014.0
20260905164520 94 340 4.3 8.7 0.00 0.00 0.00 53 1014.2
20260905163519 93 338 3.5 7.8 0.00 0.00 0.00 54 1014.2